Regional Weather Roundup
Issued by NWS Sioux Falls, SD

Home | Current Version | Previous Version | Text Only | Print | Product List | Glossary On
Versions: 1 2 3 4 5 6 7 8 9 10 11 12 13 14 15 16 17 18 19 20 21 22 23 24 25 26 27 28 29 30 31 32 33 34 35 36 37 38 39 40 41 42 43 44 45 46 47 48 49 50
000
ASUS43 KFSD 180102
RWRFSD

WEATHER ROUNDUP FOR SE SOUTH DAKOTA/SW MINNESOTA/NW IOWA
NATIONAL WEATHER SERVICE SIOUX FALLS SD
800 PM CDT FRI APR 17 2015

NOTE: "FAIR" INDICATES FEW OR NO CLOUDS BELOW 12,000 FEET WITH NO
SIGNIFICANT WEATHER AND OR OBSTRUCTIONS TO VISIBILITY.


SDZ038>040-050-052>070-180200-
SOUTHEAST SOUTH DAKOTA

CITY           SKY/WX    TMP DP  RH WIND       PRES   REMARKS
BROOKINGS      PTCLDY    64  28  25 N6        30.05S
CHAMBERLAIN    NOT AVBL
HURON          MOCLDY    66  29  24 N6        30.04S
MADISON        FAIR      63  28  27 NE8       30.05S
MITCHELL       CLOUDY    69  34  27 N7        30.04S
SIOUX FALLS    CLOUDY    70  41  34 CALM      30.02S
WINNER         LGT RAIN  58  53  84 W5        30.07F
YANKTON        CLOUDY    64  50  59 NW7       30.02R
$$

MNZ071-072-080-081-089-090-097-098-180200-
SOUTHWEST MINNESOTA

CITY           SKY/WX    TMP DP  RH WIND       PRES   REMARKS
FAIRMONT       CLOUDY    70  37  30 MISG      30.01F
JACKSON        CLOUDY    68  32  26 N3        30.03S
LUVERNE        CLOUDY    70  34  26 NE7       30.03S
MARSHALL       PTCLDY    66  16  14 N9        30.04S
MONTEVIDEO     CLEAR     66  19  16 N5        30.05S
PIPESTONE      MOCLDY    66  23  19 NE6       30.04S
REDWOOD FALLS  PTCLDY    70  23  17 N6        30.02S
TRACY          PTCLDY    68  22  17 N6        30.04S
WORTHINGTON    CLOUDY    68  34  28 N7        30.04S
$$

IAZ001>003-012>014-020>022-031-032-NEZ013-014-SDZ071-180200-
NORTHWEST IOWA

CITY           SKY/WX    TMP DP  RH WIND       PRES   REMARKS
DENISON        CLOUDY    72  48  43 NE3       29.98S
ESTHERVILLE    CLOUDY    67  40  37 N8        30.01F
SIOUX CITY     MOCLDY    72  45  37 NE7       30.00S
SPENCER        CLOUDY    67  46  47 N8        30.02S
$$

ABBREVIATIONS USED IN REMARKS
   TC - TEMPERATURE IN CELSIUS
  WCI - WIND CHILL INDEX
   HX - HEAT INDEX
  VSB - VISIBILITY




USA.gov is the U.S. government's official web portal to all federal, state and local government web resources and services.